contact:dominique.lefevre@mio.osupytheas.fr, maurice.libes@osupytheas.fr, didier.mallarino@osupytheas.fr
Project:EMSO http://www.emso-fr.org/EMSO-France
Depth: 2436.0 m
Title:EMSO Ligure Ouest : Data MII capteur AQUADOPP
Date,Latitude,Longitude,X_East,Y_North,Z_Up,Amplitude_X,Amplitude_Y,Amplitude_Z,Batterie,SoundSpeed,Heading,Pitch,Roll,Pressure,TIS,Speed,Direction
, degrees North, degrees East, m.s-1, m.s-1,m.s-1, 1, 1, 1, Volt, m.s-1, degree, degree, degree, dbar, degree_C, m.s-1, degree
2024-04-26T12:04:03,42.805,6.029,-0.035,0.02,0.0,104.0,102.0,101.0,13.4,1505.2,357.8,-0.8,1.8,2471.76,13.28,0.04,299.7
2024-04-26T12:07:03,42.805,6.029,-0.036,0.023,0.004,105.0,102.0,101.0,13.4,1505.2,359.4,-0.8,1.9,2471.666,13.28,0.042,302.6
2024-04-26T12:10:03,42.805,6.029,-0.035,0.033,-0.032,104.0,103.0,101.0,13.4,1505.2,7.2,-0.7,1.8,2471.679,13.29,0.048,313.3
2024-04-26T12:13:03,42.805,6.029,-0.042,0.014,-0.02,104.0,102.0,102.0,13.4,1505.2,0.0,-0.8,1.8,2471.615,13.29,0.044,288.4
2024-04-26T12:16:03,42.805,6.029,-0.026,0.013,0.012,103.0,103.0,101.0,13.4,1505.2,0.0,-0.8,1.8,2471.59,13.29,0.029,296.6
2024-04-26T12:19:03,42.805,6.029,-0.032,0.012,0.003,104.0,102.0,101.0,13.4,1505.2,358.3,-0.7,1.8,2471.595,13.29,0.034,290.6
2024-04-26T12:22:03,42.805,6.029,-0.026,0.027,-0.004,104.0,102.0,103.0,13.4,1505.2,8.1,-0.8,1.9,2471.529,13.29,0.037,316.1
2024-04-26T12:25:03,42.805,6.029,-0.058,-0.004,-0.026,104.0,104.0,101.0,13.4,1505.2,353.0,-0.7,1.8,2471.601,13.29,0.058,266.1
2024-04-26T12:28:03,42.805,6.029,-0.058,0.002,-0.024,103.0,103.0,101.0,13.4,1505.2,354.6,-0.8,1.8,2471.569,13.29,0.058,272.0
2024-04-26T12:31:03,42.805,6.029,-0.043,0.035,-0.013,104.0,102.0,101.0,13.4,1505.2,6.3,-0.8,1.8,2471.554,13.29,0.055,309.1
2024-04-26T12:34:03,42.805,6.029,-0.036,-0.001,0.0,104.0,103.0,102.0,13.4,1505.2,358.3,-0.8,1.8,2471.554,13.29,0.036,268.4
2024-04-26T12:37:03,42.805,6.029,-0.029,0.006,-0.029,104.0,103.0,101.0,13.4,1505.2,0.5,-0.8,1.8,2471.549,13.29,0.029,281.7
2024-04-26T12:40:03,42.805,6.029,-0.034,0.035,0.008,105.0,103.0,102.0,13.3,1505.2,7.1,-0.7,1.8,2471.566,13.29,0.048,315.8
2024-04-26T12:43:03,42.805,6.029,-0.047,0.035,-0.002,105.0,104.0,101.0,13.4,1505.2,2.1,-0.8,1.8,2471.551,13.29,0.058,306.7
2024-04-26T12:46:03,42.805,6.029,-0.013,0.003,0.005,105.0,103.0,101.0,13.4,1505.2,6.7,-0.7,1.8,2471.552,13.29,0.013,283.0
2024-04-26T12:49:03,42.805,6.029,-0.052,0.001,-0.011,103.0,101.0,103.0,13.3,1505.2,359.5,-0.7,1.8,2471.596,13.29,0.052,271.1
2024-04-26T12:52:03,42.805,6.029,-0.03,0.0,0.009,103.0,103.0,102.0,13.4,1505.2,6.8,-0.8,1.8,2471.565,13.29,0.03,270.0
2024-04-26T12:55:03,42.805,6.029,-0.045,0.009,-0.014,104.0,103.0,102.0,13.3,1505.2,356.5,-0.7,1.8,2471.562,13.29,0.045,281.3
2024-04-26T12:58:03,42.805,6.029,-0.031,0.026,-0.02,103.0,102.0,101.0,13.4,1505.2,4.3,-0.7,1.8,2471.601,13.29,0.04,310.0
2024-04-26T13:04:03,42.805,6.029,-0.014,0.008,0.009,103.0,103.0,102.0,13.4,1505.2,9.7,-0.8,1.8,2471.673,13.29,0.016,299.7
2024-04-26T13:07:03,42.805,6.029,-0.047,0.027,-0.021,104.0,103.0,101.0,13.4,1505.2,356.3,-0.7,1.8,2471.667,13.29,0.054,299.9
2024-04-26T13:10:03,42.805,6.029,-0.043,0.033,-0.012,104.0,103.0,101.0,13.4,1505.2,6.9,-0.7,1.8,2471.632,13.29,0.054,307.5
2024-04-26T13:13:03,42.805,6.029,-0.045,0.006,-0.015,103.0,103.0,101.0,13.4,1505.2,357.1,-0.8,1.8,2471.666,13.29,0.045,277.6
2024-04-26T13:16:03,42.805,6.029,-0.031,0.01,0.004,105.0,103.0,102.0,13.4,1505.2,358.9,-0.8,1.8,2471.612,13.29,0.032,287.9
2024-04-26T13:19:03,42.805,6.029,-0.029,0.029,0.015,104.0,104.0,101.0,13.4,1505.2,1.5,-0.8,1.8,2471.632,13.29,0.041,315.0
2024-04-26T13:22:03,42.805,6.029,-0.037,0.015,-0.003,104.0,103.0,102.0,13.3,1505.2,9.1,-0.8,1.8,2471.641,13.29,0.039,292.1
2024-04-26T13:25:03,42.805,6.029,-0.031,0.019,-0.013,105.0,104.0,101.0,13.4,1505.2,6.7,-0.8,1.8,2471.611,13.29,0.036,301.5
2024-04-26T13:28:03,42.805,6.029,-0.057,0.005,-0.014,104.0,104.0,103.0,13.4,1505.2,354.6,-0.7,1.8,2471.607,13.29,0.057,275.0
2024-04-26T13:31:03,42.805,6.029,-0.035,-0.003,0.002,104.0,104.0,102.0,13.3,1505.2,5.4,-0.8,1.8,2471.614,13.29,0.035,265.1
2024-04-26T13:34:03,42.805,6.029,-0.027,0.008,0.015,105.0,103.0,101.0,13.4,1505.2,1.6,-0.7,1.8,2471.59,13.29,0.028,286.5
2024-04-26T13:37:03,42.805,6.029,-0.022,-0.002,-0.007,102.0,103.0,103.0,13.3,1505.2,358.3,-0.8,1.8,2471.61,13.29,0.022,264.8
2024-04-26T13:40:03,42.805,6.029,-0.059,0.012,-0.027,105.0,103.0,102.0,13.4,1505.2,359.4,-0.8,1.8,2471.638,13.29,0.06,281.5
2024-04-26T13:43:03,42.805,6.029,-0.04,0.007,0.036,104.0,102.0,101.0,13.4,1505.2,2.7,-0.7,1.8,2471.604,13.29,0.04,279.9
2024-04-26T13:46:03,42.805,6.029,-0.039,0.026,0.021,104.0,105.0,102.0,13.4,1505.2,3.3,-0.7,1.8,2471.632,13.29,0.046,303.7
2024-04-26T13:49:03,42.805,6.029,-0.038,0.018,0.008,104.0,104.0,102.0,13.4,1505.2,3.4,-0.8,1.8,2471.625,13.29,0.042,295.3
2024-04-26T13:52:03,42.805,6.029,-0.01,0.0,0.002,103.0,103.0,101.0,13.4,1505.2,8.7,-0.8,1.8,2471.614,13.29,0.01,270.0
2024-04-26T13:55:03,42.805,6.029,-0.031,0.0,-0.007,104.0,103.0,102.0,13.4,1505.2,9.7,-0.7,1.8,2471.593,13.29,0.03,270.0
2024-04-26T13:58:03,42.805,6.029,-0.044,0.003,-0.02,105.0,104.0,102.0,13.3,1505.2,2.5,-0.8,1.8,2471.604,13.29,0.044,273.9
2024-04-26T14:04:03,42.805,6.029,-0.048,0.012,-0.005,104.0,105.0,103.0,13.4,1505.2,3.0,-0.7,1.8,2471.678,13.29,0.049,284.0
2024-04-26T14:07:03,42.805,6.029,-0.042,-0.004,-0.003,104.0,106.0,101.0,13.4,1505.2,356.1,-0.8,1.8,2471.677,13.29,0.042,264.6
2024-04-26T14:10:03,42.805,6.029,-0.023,0.0,-0.003,105.0,104.0,102.0,13.4,1505.2,3.8,-0.7,1.8,2471.636,13.29,0.023,270.0
2024-04-26T14:13:03,42.805,6.029,-0.044,0.008,-0.008,105.0,104.0,101.0,13.4,1505.2,1.0,-0.7,1.8,2471.651,13.29,0.044,280.3
2024-04-26T14:16:03,42.805,6.029,-0.063,0.031,-0.02,105.0,103.0,102.0,13.4,1505.2,9.7,-0.8,1.8,2471.655,13.29,0.07,296.2
2024-04-26T14:19:03,42.805,6.029,-0.031,0.011,0.014,104.0,105.0,103.0,13.3,1505.2,355.8,-0.8,1.8,2471.67,13.29,0.032,289.5
2024-04-26T14:22:03,42.805,6.029,-0.028,0.024,-0.012,104.0,104.0,102.0,13.4,1505.2,1.0,-0.7,1.8,2471.666,13.29,0.036,310.6
2024-04-26T14:25:03,42.805,6.029,-0.04,0.005,0.002,105.0,104.0,104.0,13.4,1505.2,1.0,-0.8,1.8,2471.646,13.29,0.04,277.1
2024-04-26T14:28:03,42.805,6.029,-0.038,0.031,-0.019,104.0,104.0,103.0,13.4,1505.2,10.3,-0.8,1.8,2471.614,13.29,0.049,309.2
2024-04-26T14:31:03,42.805,6.029,-0.038,0.02,-0.027,104.0,105.0,103.0,13.4,1505.2,354.1,-0.8,1.8,2471.637,13.29,0.042,297.8
2024-04-26T14:34:03,42.805,6.029,-0.046,0.002,-0.005,105.0,104.0,102.0,13.3,1505.2,7.0,-0.7,1.8,2471.613,13.29,0.046,272.5
2024-04-26T14:37:03,42.805,6.029,-0.039,0.021,0.003,105.0,103.0,102.0,13.4,1505.2,1.1,-0.8,1.8,2471.641,13.29,0.044,298.3
2024-04-26T14:40:03,42.805,6.029,-0.036,0.03,-0.004,105.0,103.0,102.0,13.4,1505.2,6.7,-0.8,1.8,2471.605,13.29,0.046,309.8
2024-04-26T14:43:03,42.805,6.029,-0.042,-0.002,0.003,105.0,105.0,102.0,13.3,1505.2,8.7,-0.8,1.8,2471.647,13.29,0.042,267.3
2024-04-26T14:46:03,42.805,6.029,-0.046,0.01,-0.031,105.0,103.0,102.0,13.3,1505.2,5.5,-0.8,1.8,2471.572,13.29,0.047,282.3
2024-04-26T14:49:03,42.805,6.029,-0.053,0.008,-0.048,105.0,105.0,101.0,13.4,1505.2,9.9,-0.8,1.8,2471.608,13.29,0.053,278.6
2024-04-26T14:52:03,42.805,6.029,-0.056,0.016,-0.018,105.0,104.0,102.0,13.3,1505.2,2.2,-0.8,1.8,2471.634,13.29,0.058,285.9
2024-04-26T14:55:03,42.805,6.029,-0.044,0.003,-0.017,105.0,102.0,102.0,13.4,1505.2,5.4,-0.8,1.8,2471.625,13.29,0.044,273.9
2024-04-26T14:58:03,42.805,6.029,-0.042,0.016,-0.008,105.0,103.0,101.0,13.4,1505.2,2.2,-0.8,1.8,2471.669,13.29,0.044,290.9
2024-04-26T15:04:03,42.805,6.029,-0.041,-0.005,0.013,105.0,103.0,102.0,13.3,1505.2,356.5,-0.8,1.8,2471.679,13.29,0.041,263.0
2024-04-26T15:07:03,42.805,6.029,-0.047,0.011,0.006,106.0,104.0,102.0,13.3,1505.2,5.8,-0.8,1.8,2471.617,13.29,0.048,283.2
2024-04-26T15:10:03,42.805,6.029,-0.044,0.036,-0.008,105.0,104.0,101.0,13.4,1505.2,2.2,-0.7,1.8,2471.667,13.29,0.056,309.3
2024-04-26T15:13:03,42.805,6.029,-0.034,0.003,-0.024,104.0,104.0,101.0,13.4,1505.2,9.5,-0.8,1.9,2471.655,13.29,0.034,275.0
2024-04-26T15:16:03,42.805,6.029,-0.057,0.0,-0.016,105.0,104.0,102.0,13.4,1505.2,354.7,-0.8,1.8,2471.64,13.29,0.057,270.0
2024-04-26T15:19:03,42.805,6.029,-0.057,0.014,-0.02,105.0,103.0,101.0,13.3,1505.2,6.9,-0.7,1.8,2471.621,13.29,0.058,283.8
2024-04-26T15:22:03,42.805,6.029,-0.065,0.014,-0.009,105.0,103.0,102.0,13.4,1505.2,0.0,-0.8,1.8,2471.634,13.29,0.066,282.2
2024-04-26T15:25:03,42.805,6.029,-0.034,0.032,0.006,105.0,103.0,102.0,13.3,1505.2,8.9,-0.8,1.8,2471.608,13.29,0.046,313.3
2024-04-26T15:28:03,42.805,6.029,-0.051,0.003,-0.017,104.0,105.0,103.0,13.4,1505.2,6.3,-0.7,1.8,2471.644,13.29,0.051,273.4
2024-04-26T15:31:03,42.805,6.029,-0.027,0.002,0.0,105.0,104.0,102.0,13.3,1505.2,3.3,-0.7,1.8,2471.637,13.29,0.027,274.2
2024-04-26T15:34:03,42.805,6.029,-0.037,0.033,0.001,105.0,105.0,102.0,13.4,1505.2,9.3,-0.8,1.8,2471.591,13.29,0.049,311.7
2024-04-26T15:37:03,42.805,6.029,-0.048,0.017,0.004,106.0,104.0,102.0,13.4,1505.2,7.9,-0.7,1.8,2471.62,13.29,0.05,289.5
2024-04-26T15:40:03,42.805,6.029,-0.031,0.006,-0.019,105.0,104.0,101.0,13.3,1505.2,3.0,-0.8,1.8,2471.639,13.29,0.031,281.0
2024-04-26T15:43:03,42.805,6.029,-0.057,-0.007,-0.001,105.0,104.0,102.0,13.3,1505.2,354.1,-0.7,1.8,2471.624,13.29,0.057,263.0
2024-04-26T15:46:03,42.805,6.029,-0.032,0.027,-0.012,106.0,103.0,103.0,13.3,1505.2,4.1,-0.8,1.8,2471.618,13.29,0.041,310.2
2024-04-26T15:49:03,42.805,6.029,-0.046,0.018,-0.004,105.0,104.0,102.0,13.4,1505.2,9.0,-0.8,1.8,2471.625,13.29,0.049,291.4
2024-04-26T15:52:03,42.805,6.029,-0.052,0.04,0.016,104.0,104.0,102.0,13.4,1505.2,6.6,-0.7,1.8,2471.633,13.29,0.065,307.6
2024-04-26T15:55:03,42.805,6.029,-0.046,0.011,0.001,105.0,104.0,101.0,13.4,1505.2,7.6,-0.7,1.8,2471.621,13.29,0.047,283.4
2024-04-26T15:58:03,42.805,6.029,-0.031,-0.003,0.012,104.0,104.0,102.0,13.3,1505.2,9.1,-0.7,1.8,2471.613,13.29,0.031,264.5
2024-04-26T16:04:03,42.805,6.029,-0.04,0.008,-0.02,105.0,104.0,103.0,13.3,1505.2,358.4,-0.8,1.8,2471.657,13.29,0.04,281.3
2024-04-26T16:07:03,42.805,6.029,-0.051,0.007,0.001,105.0,104.0,102.0,13.4,1505.2,4.5,-0.8,1.8,2471.631,13.29,0.051,277.8
2024-04-26T16:10:03,42.805,6.029,-0.041,0.027,0.001,105.0,104.0,102.0,13.3,1505.2,5.6,-0.8,1.8,2471.661,13.29,0.049,303.4
2024-04-26T16:13:03,42.805,6.029,-0.02,0.013,-0.006,105.0,104.0,102.0,13.4,1505.2,7.7,-0.8,1.8,2471.651,13.29,0.023,303.0
2024-04-26T16:16:03,42.805,6.029,-0.015,0.006,0.005,105.0,104.0,103.0,13.3,1505.2,4.0,-0.7,1.8,2471.639,13.29,0.016,291.8
2024-04-26T16:19:03,42.805,6.029,-0.037,-0.001,-0.021,104.0,105.0,103.0,13.3,1505.2,5.3,-0.7,1.8,2471.636,13.29,0.037,268.5
2024-04-26T16:22:03,42.805,6.029,-0.042,0.001,0.0,105.0,104.0,103.0,13.3,1505.2,0.0,-0.8,1.8,2471.632,13.29,0.042,271.4
2024-04-26T16:25:03,42.805,6.029,-0.047,0.014,-0.027,105.0,105.0,102.0,13.3,1505.2,3.9,-0.8,1.8,2471.598,13.29,0.049,286.6
2024-04-26T16:28:03,42.805,6.029,-0.048,0.014,-0.013,105.0,104.0,102.0,13.3,1505.2,355.2,-0.7,1.8,2471.648,13.29,0.05,286.3
2024-04-26T16:31:03,42.805,6.029,-0.061,0.016,0.002,105.0,103.0,102.0,13.3,1505.2,0.4,-0.8,1.8,2471.624,13.29,0.063,284.7
2024-04-26T16:34:03,42.805,6.029,-0.067,0.032,-0.017,105.0,103.0,102.0,13.3,1505.2,4.7,-0.8,1.8,2471.643,13.29,0.074,295.5
2024-04-26T16:37:03,42.805,6.029,-0.046,0.021,-0.006,105.0,104.0,101.0,13.3,1505.2,3.2,-0.7,1.8,2471.637,13.29,0.05,294.5
2024-04-26T16:40:03,42.805,6.029,-0.04,0.0,-0.013,105.0,104.0,102.0,13.3,1505.2,0.0,-0.8,1.8,2471.605,13.29,0.04,270.0
2024-04-26T16:43:03,42.805,6.029,-0.053,0.025,-0.032,106.0,102.0,102.0,13.4,1505.2,8.9,-0.7,1.8,2471.614,13.29,0.058,295.3
2024-04-26T16:46:03,42.805,6.029,-0.041,0.004,-0.028,104.0,103.0,103.0,13.4,1505.2,353.4,-0.8,1.8,2471.645,13.29,0.041,275.6
2024-04-26T16:49:03,42.805,6.029,-0.05,0.016,0.004,106.0,104.0,103.0,13.3,1505.2,9.5,-0.7,1.8,2471.655,13.29,0.052,287.7
2024-04-26T16:52:03,42.805,6.029,-0.052,0.011,-0.002,106.0,105.0,102.0,13.4,1505.2,3.1,-0.7,1.8,2471.649,13.29,0.053,281.9
2024-04-26T16:55:03,42.805,6.029,-0.057,0.013,0.017,105.0,104.0,102.0,13.4,1505.2,356.0,-0.8,1.8,2471.654,13.29,0.058,282.8
2024-04-26T16:58:03,42.805,6.029,-0.045,0.009,0.005,104.0,104.0,102.0,13.4,1505.2,358.3,-0.7,1.8,2471.671,13.29,0.045,281.3
2024-04-26T17:04:03,42.805,6.029,-0.046,0.018,-0.027,106.0,105.0,103.0,13.3,1505.2,9.2,-0.7,1.8,2471.694,13.29,0.049,291.4
2024-04-26T17:07:03,42.805,6.029,-0.031,0.007,-0.007,105.0,104.0,102.0,13.3,1505.2,1.0,-0.7,1.8,2471.71,13.29,0.031,282.7
2024-04-26T17:10:03,42.805,6.029,-0.026,0.004,-0.009,106.0,104.0,103.0,13.4,1505.2,358.2,-0.8,1.8,2471.692,13.29,0.026,278.7
2024-04-26T17:13:03,42.805,6.029,-0.048,0.014,-0.002,104.0,104.0,102.0,13.4,1505.2,358.8,-0.8,1.8,2471.671,13.29,0.05,286.3
2024-04-26T17:16:03,42.805,6.029,-0.037,0.014,-0.002,104.0,105.0,102.0,13.4,1505.2,6.9,-0.8,1.8,2471.705,13.29,0.039,290.7
2024-04-26T17:19:03,42.805,6.029,-0.047,0.009,0.0,105.0,105.0,102.0,13.4,1505.2,2.5,-0.8,1.8,2471.67,13.29,0.047,280.8
2024-04-26T17:22:03,42.805,6.029,-0.046,0.009,-0.025,104.0,103.0,102.0,13.4,1505.2,2.2,-0.8,1.8,2471.671,13.29,0.046,281.1
2024-04-26T17:25:03,42.805,6.029,-0.042,-0.011,-0.01,105.0,104.0,103.0,13.3,1505.2,359.4,-0.7,1.8,2471.659,13.29,0.043,255.3
2024-04-26T17:28:03,42.805,6.029,-0.042,0.0,-0.017,104.0,103.0,103.0,13.4,1505.2,6.2,-0.8,1.9,2471.662,13.29,0.042,270.0
2024-04-26T17:31:03,42.805,6.029,-0.044,0.026,-0.009,106.0,103.0,102.0,13.4,1505.2,6.1,-0.8,1.8,2471.7,13.29,0.051,300.6
2024-04-26T17:34:03,42.805,6.029,-0.034,0.002,-0.02,106.0,104.0,102.0,13.4,1505.2,6.7,-0.7,1.8,2471.671,13.29,0.034,273.4
2024-04-26T17:37:03,42.805,6.029,-0.041,-0.006,0.004,104.0,103.0,102.0,13.3,1505.2,353.4,-0.8,1.8,2471.671,13.29,0.041,261.7
2024-04-26T17:40:03,42.805,6.029,-0.048,0.018,-0.009,105.0,104.0,102.0,13.4,1505.2,5.4,-0.8,1.8,2471.688,13.29,0.051,290.6
2024-04-26T17:43:03,42.805,6.029,-0.059,0.004,-0.004,104.0,103.0,101.0,13.4,1505.2,2.2,-0.7,1.8,2471.683,13.29,0.059,273.9
2024-04-26T17:46:03,42.805,6.029,-0.028,-0.009,-0.033,105.0,104.0,102.0,13.4,1505.2,1.0,-0.7,1.8,2471.73,13.29,0.029,252.2
2024-04-26T17:49:03,42.805,6.029,-0.05,-0.002,-0.022,106.0,103.0,102.0,13.3,1505.2,354.0,-0.8,1.8,2471.663,13.29,0.05,267.7
2024-04-26T17:52:03,42.805,6.029,-0.048,0.0,-0.029,104.0,104.0,103.0,13.4,1505.2,0.0,-0.7,1.9,2471.695,13.29,0.048,270.0
2024-04-26T17:55:03,42.805,6.029,-0.038,0.001,-0.02,105.0,103.0,103.0,13.4,1505.2,358.9,-0.8,1.8,2471.676,13.29,0.038,271.5
2024-04-26T17:58:03,42.805,6.029,-0.054,0.02,0.0,105.0,103.0,101.0,13.3,1505.2,4.5,-0.7,1.8,2471.722,13.29,0.057,290.3
2024-04-26T18:04:03,42.805,6.029,-0.033,0.015,0.013,104.0,105.0,102.0,13.3,1505.2,2.2,-0.8,1.8,2471.757,13.29,0.036,294.4
2024-04-26T18:07:03,42.805,6.029,-0.05,-0.008,0.0,105.0,103.0,101.0,13.4,1505.2,354.0,-0.8,1.8,2471.753,13.29,0.05,260.9
2024-04-26T18:10:03,42.805,6.029,-0.032,0.003,-0.014,105.0,105.0,103.0,13.4,1505.2,5.5,-0.8,1.8,2471.772,13.29,0.032,275.4
2024-04-26T18:13:03,42.805,6.029,-0.057,0.01,-0.026,105.0,103.0,102.0,13.4,1505.2,358.8,-0.7,1.8,2471.718,13.29,0.057,279.9
2024-04-26T18:16:03,42.805,6.029,-0.027,0.009,0.014,105.0,103.0,102.0,13.4,1505.2,0.5,-0.7,1.8,2471.722,13.29,0.028,288.4
2024-04-26T18:19:03,42.805,6.029,-0.056,0.006,-0.017,106.0,103.0,102.0,13.3,1505.2,355.8,-0.8,1.8,2471.733,13.29,0.056,276.1
2024-04-26T18:22:03,42.805,6.029,-0.053,0.027,-0.005,105.0,105.0,100.0,13.4,1505.2,5.3,-0.7,1.8,2471.741,13.29,0.059,297.0
2024-04-26T18:25:03,42.805,6.029,-0.062,0.015,-0.029,104.0,104.0,103.0,13.4,1505.2,357.8,-0.7,1.8,2471.748,13.29,0.063,283.6
2024-04-26T18:28:03,42.805,6.029,-0.057,0.024,0.001,106.0,105.0,102.0,13.4,1505.2,5.1,-0.7,1.8,2471.723,13.29,0.061,292.8
2024-04-26T18:31:03,42.805,6.029,-0.034,-0.018,-0.003,107.0,107.0,102.0,13.4,1505.2,358.3,-0.7,1.8,2471.713,13.29,0.038,242.1
2024-04-26T18:34:03,42.805,6.029,-0.038,0.015,0.013,105.0,107.0,103.0,13.4,1505.2,4.4,-0.7,1.8,2471.746,13.29,0.04,291.5
2024-04-26T18:37:03,42.805,6.029,-0.066,0.016,-0.018,106.0,105.0,104.0,13.3,1505.2,0.0,-0.7,1.8,2471.75,13.29,0.067,283.6
2024-04-26T18:40:03,42.805,6.029,-0.055,-0.004,-0.02,107.0,105.0,103.0,13.4,1505.2,0.5,-0.8,1.8,2471.733,13.29,0.055,265.8
2024-04-26T18:43:03,42.805,6.029,-0.05,0.033,-0.015,106.0,106.0,102.0,13.4,1505.2,4.4,-0.8,1.8,2471.717,13.29,0.059,303.4
2024-04-26T18:46:03,42.805,6.029,-0.039,0.011,-0.023,107.0,105.0,103.0,13.4,1505.2,8.6,-0.7,1.8,2471.762,13.29,0.04,285.7
2024-04-26T18:49:03,42.805,6.029,-0.035,0.012,-0.005,106.0,105.0,103.0,13.4,1505.2,7.7,-0.8,1.8,2471.753,13.29,0.037,288.9
2024-04-26T18:52:03,42.805,6.029,-0.03,0.0,0.009,106.0,106.0,104.0,13.4,1505.2,0.0,-0.8,1.8,2471.745,13.29,0.03,270.0
2024-04-26T18:55:03,42.805,6.029,-0.053,-0.015,-0.011,106.0,106.0,103.0,13.3,1505.2,0.5,-0.8,1.8,2471.768,13.29,0.055,254.2
2024-04-26T18:58:03,42.805,6.029,-0.078,0.001,-0.004,106.0,105.0,103.0,13.3,1505.2,4.1,-0.7,1.8,2471.755,13.29,0.078,270.7
2024-04-26T19:04:03,42.805,6.029,-0.061,0.027,-0.02,107.0,105.0,103.0,13.3,1505.2,4.5,-0.8,1.8,2471.789,13.29,0.066,293.9
2024-04-26T19:07:03,42.805,6.029,-0.032,0.012,0.022,106.0,106.0,103.0,13.4,1505.2,7.8,-0.8,1.8,2471.77,13.29,0.034,290.6
2024-04-26T19:10:03,42.805,6.029,-0.048,-0.011,-0.034,107.0,106.0,102.0,13.4,1505.2,353.7,-0.8,1.8,2471.826,13.29,0.049,257.1
2024-04-26T19:13:03,42.805,6.029,-0.061,0.043,0.007,107.0,106.0,104.0,13.3,1505.2,4.2,-0.7,1.8,2471.791,13.29,0.074,305.2
2024-04-26T19:16:03,42.805,6.029,-0.034,0.037,-0.018,108.0,106.0,104.0,13.3,1505.2,9.3,-0.8,1.8,2471.783,13.29,0.05,317.4
2024-04-26T19:19:03,42.805,6.029,-0.054,0.03,0.019,108.0,105.0,105.0,13.3,1505.2,356.3,-0.7,1.8,2471.763,13.29,0.061,299.1
2024-04-26T19:22:03,42.805,6.029,-0.053,0.037,-0.007,109.0,107.0,105.0,13.3,1505.2,3.3,-0.8,1.8,2471.786,13.29,0.064,304.9
2024-04-26T19:25:03,42.805,6.029,-0.056,0.019,0.006,108.0,107.0,104.0,13.3,1505.2,1.5,-0.7,1.8,2471.782,13.29,0.059,288.7
2024-04-26T19:28:03,42.805,6.029,-0.059,0.049,-0.017,107.0,106.0,104.0,13.4,1505.2,7.2,-0.7,1.8,2471.774,13.29,0.076,309.7
2024-04-26T19:31:03,42.805,6.029,-0.036,0.002,-0.01,107.0,107.0,104.0,13.4,1505.2,355.3,-0.8,1.8,2471.792,13.29,0.036,273.2
2024-04-26T19:34:03,42.805,6.029,-0.032,0.029,-0.002,108.0,105.0,104.0,13.4,1505.2,358.3,-0.8,1.8,2471.769,13.29,0.043,312.2
2024-04-26T19:37:03,42.805,6.029,-0.024,0.007,-0.01,108.0,105.0,103.0,13.3,1505.2,5.5,-0.7,1.8,2471.75,13.29,0.025,286.3
2024-04-26T19:40:03,42.805,6.029,-0.043,0.023,-0.02,108.0,106.0,104.0,13.4,1505.2,358.3,-0.7,1.8,2471.755,13.29,0.048,298.1
2024-04-26T19:43:03,42.805,6.029,-0.044,0.029,0.0,107.0,107.0,104.0,13.3,1505.2,9.8,-0.7,1.8,2471.787,13.29,0.052,303.4
2024-04-26T19:46:03,42.805,6.029,-0.037,0.023,-0.001,106.0,105.0,104.0,13.4,1505.2,355.0,-0.8,1.8,2471.823,13.29,0.043,301.9
2024-04-26T19:49:03,42.805,6.029,-0.045,0.012,-0.011,107.0,106.0,103.0,13.4,1505.2,0.0,-0.8,1.8,2471.801,13.29,0.046,284.9
2024-04-26T19:52:03,42.805,6.029,-0.047,0.043,0.012,106.0,106.0,104.0,13.3,1505.2,358.3,-0.8,1.8,2471.788,13.29,0.063,312.5
2024-04-26T19:55:03,42.805,6.029,-0.044,0.013,-0.025,107.0,105.0,103.0,13.3,1505.2,355.2,-0.8,1.8,2471.783,13.29,0.045,286.5
2024-04-26T19:58:03,42.805,6.029,-0.04,0.028,-0.018,107.0,106.0,104.0,13.4,1505.2,4.0,-0.8,1.8,2471.783,13.29,0.048,305.0
2024-04-26T20:01:03,42.805,6.029,-0.048,0.028,0.001,107.0,105.0,103.0,13.4,1505.2,0.5,-0.8,1.8,2471.758,13.29,0.055,300.3
2024-04-26T20:04:03,42.805,6.029,-0.037,0.027,-0.009,107.0,106.0,104.0,13.3,1505.2,2.8,-0.8,1.8,2471.815,13.29,0.045,306.1
2024-04-26T20:07:03,42.805,6.029,-0.029,0.035,-0.015,107.0,107.0,103.0,13.3,1505.2,8.8,-0.7,1.8,2471.744,13.29,0.045,320.4
2024-04-26T20:10:03,42.805,6.029,-0.021,0.011,0.008,106.0,106.0,104.0,13.3,1505.2,358.4,-0.8,1.8,2471.77,13.29,0.023,297.6
2024-04-26T20:13:03,42.805,6.029,-0.017,0.021,0.019,106.0,105.0,103.0,13.3,1505.2,5.1,-0.8,1.8,2471.753,13.29,0.027,321.0
2024-04-26T20:16:03,42.805,6.029,-0.066,0.017,-0.012,107.0,107.0,103.0,13.4,1505.2,355.8,-0.7,1.8,2471.8,13.29,0.068,284.4
2024-04-26T20:19:03,42.805,6.029,-0.035,0.019,0.015,106.0,106.0,103.0,13.4,1505.2,5.5,-0.7,1.8,2471.799,13.29,0.039,298.5
2024-04-26T20:22:03,42.805,6.029,-0.045,0.034,0.003,106.0,106.0,102.0,13.3,1505.2,5.7,-0.8,1.8,2471.782,13.29,0.056,307.1
2024-04-26T20:25:03,42.805,6.029,-0.036,0.014,0.002,106.0,106.0,103.0,13.3,1505.2,354.1,-0.8,1.8,2471.768,13.29,0.038,291.2
2024-04-26T20:28:03,42.805,6.029,-0.024,0.039,0.007,107.0,106.0,104.0,13.4,1505.2,2.0,-0.8,1.8,2471.795,13.29,0.045,328.4
2024-04-26T20:31:03,42.805,6.029,-0.034,0.032,0.031,107.0,105.0,103.0,13.4,1505.2,358.3,-0.7,1.8,2471.784,13.29,0.046,313.3
2024-04-26T20:34:03,42.805,6.029,-0.028,-0.002,0.015,107.0,106.0,105.0,13.3,1505.2,358.3,-0.8,1.8,2471.768,13.29,0.028,265.9
2024-04-26T20:37:03,42.805,6.029,-0.049,0.011,-0.018,106.0,106.0,103.0,13.4,1505.2,9.8,-0.8,1.8,2471.769,13.29,0.05,282.7
2024-04-26T20:40:03,42.805,6.029,-0.054,0.018,-0.006,106.0,106.0,103.0,13.4,1505.2,355.8,-0.8,1.8,2471.808,13.29,0.056,288.4
2024-04-26T20:43:03,42.805,6.029,-0.026,0.026,0.003,106.0,106.0,103.0,13.4,1505.2,5.4,-0.7,1.8,2471.799,13.29,0.036,315.0
2024-04-26T20:46:03,42.805,6.029,-0.031,0.009,-0.018,107.0,107.0,102.0,13.4,1505.2,0.0,-0.8,1.8,2471.811,13.29,0.032,286.2
2024-04-26T20:49:03,42.805,6.029,-0.032,0.016,-0.037,107.0,106.0,103.0,13.4,1505.2,3.0,-0.7,1.8,2471.777,13.29,0.035,296.6
2024-04-26T20:52:03,42.805,6.029,-0.047,0.036,0.013,107.0,106.0,103.0,13.4,1505.2,354.9,-0.8,1.8,2471.769,13.29,0.059,307.5
2024-04-26T20:55:03,42.805,6.029,-0.049,0.019,-0.038,108.0,107.0,103.0,13.4,1505.2,356.1,-0.7,1.8,2471.796,13.29,0.052,291.2
2024-04-26T20:58:03,42.805,6.029,-0.045,0.019,0.01,107.0,106.0,103.0,13.4,1505.2,354.9,-0.7,1.8,2471.834,13.29,0.048,292.9
2024-04-26T21:04:03,42.805,6.029,-0.024,0.012,-0.004,107.0,106.0,104.0,13.4,1505.2,3.3,-0.8,1.8,2471.848,13.29,0.026,296.6
2024-04-26T21:07:03,42.805,6.029,-0.011,0.012,0.002,108.0,105.0,104.0,13.4,1505.2,3.0,-0.8,1.8,2471.802,13.29,0.016,317.5
2024-04-26T21:10:03,42.805,6.029,-0.051,-0.011,-0.007,107.0,105.0,104.0,13.4,1505.2,1.7,-0.7,1.8,2471.821,13.29,0.052,257.8
2024-04-26T21:13:03,42.805,6.029,-0.038,0.016,-0.001,106.0,105.0,104.0,13.4,1505.2,2.8,-0.8,1.8,2471.79,13.29,0.041,292.8
2024-04-26T21:16:03,42.805,6.029,-0.059,-0.009,-0.027,108.0,107.0,102.0,13.4,1505.2,6.7,-0.7,1.8,2471.79,13.29,0.059,261.3
2024-04-26T21:19:03,42.805,6.029,-0.047,0.04,-0.014,107.0,107.0,103.0,13.4,1505.2,355.8,-0.7,1.8,2471.826,13.29,0.061,310.4
2024-04-26T21:22:03,42.805,6.029,-0.02,0.016,-0.014,108.0,105.0,104.0,13.4,1505.2,1.6,-0.7,1.8,2471.814,13.29,0.025,308.7
2024-04-26T21:25:03,42.805,6.029,-0.053,0.013,-0.025,107.0,107.0,104.0,13.4,1505.2,7.3,-0.8,1.8,2471.835,13.29,0.054,283.8
2024-04-26T21:28:03,42.805,6.029,-0.02,0.005,-0.016,107.0,107.0,103.0,13.4,1505.2,6.2,-0.8,1.8,2471.803,13.29,0.02,284.0
2024-04-26T21:31:03,42.805,6.029,-0.032,0.0,-0.015,106.0,107.0,104.0,13.3,1505.2,354.1,-0.8,1.8,2471.835,13.29,0.032,270.0
2024-04-26T21:34:03,42.805,6.029,-0.034,0.039,-0.036,107.0,106.0,104.0,13.3,1505.2,7.0,-0.8,1.8,2471.779,13.29,0.051,318.9
2024-04-26T21:37:03,42.805,6.029,-0.038,0.02,-0.004,108.0,106.0,104.0,13.4,1505.2,358.3,-0.8,1.8,2471.767,13.29,0.042,297.8
2024-04-26T21:40:03,42.805,6.029,-0.019,0.007,0.011,106.0,105.0,103.0,13.4,1505.2,355.3,-0.7,1.8,2471.814,13.29,0.02,290.2
2024-04-26T21:43:03,42.805,6.029,-0.035,0.023,-0.018,106.0,107.0,104.0,13.4,1505.2,4.6,-0.8,1.8,2471.819,13.29,0.041,303.3
2024-04-26T21:46:03,42.805,6.029,-0.028,0.015,-0.018,107.0,106.0,104.0,13.4,1505.2,4.5,-0.8,1.8,2471.767,13.29,0.031,298.2
2024-04-26T21:49:03,42.805,6.029,-0.041,0.007,0.002,107.0,104.0,103.0,13.4,1505.2,9.7,-0.7,1.8,2471.818,13.29,0.041,279.7
2024-04-26T21:52:03,42.805,6.029,-0.031,0.022,-0.014,107.0,106.0,103.0,13.4,1505.2,356.9,-0.8,1.8,2471.78,13.29,0.038,305.4
2024-04-26T21:55:03,42.805,6.029,-0.048,0.011,-0.028,108.0,106.0,105.0,13.3,1505.2,356.1,-0.7,1.8,2471.782,13.29,0.049,282.9
2024-04-26T21:58:03,42.805,6.029,-0.039,0.019,-0.018,106.0,106.0,103.0,13.3,1505.2,5.5,-0.8,1.8,2471.751,13.29,0.043,296.0